Вернуться в каталог

COSMOS 1375 DEB

АктивенLEO
NORAD 16206·DEBRIS·🇷🇺 Russia

Запущен Jun 6, 1982 с Plesetsk Cosmodrome

Loading…

Ближайшие Пролёты (ближайшие 24 часа)

TLE

СвежийSource: Space-Track

Эпоха: Sep 14, 2026, 22:58 UTC

1 16206U 82055H   26257.95762946  .00000037  00000-0  12473-3 0  9995
2 16206  65.8370 341.2934 0021851 328.1216 204.3524 13.74014125218708

Отслеживайте COSMOS 1375 DEB в реальном времени с AllMySat

Download on the App Store